TimeEDT,TemperatureF,Dew PointF,Humidity,Sea Level PressureIn,VisibilityMPH,Wind Direction,Wind SpeedMPH,Gust SpeedMPH,PrecipitationIn,Events,Conditions,WindDirDegrees,DateUTC
12:53 AM,73.9,63.0,68,29.83,10.0,South,5.8,-,N/A,,Clear,190,2013-05-21 04:53:00
1:53 AM,73.0,64.0,73,29.83,10.0,SSW,6.9,-,N/A,,Clear,200,2013-05-21 05:53:00
2:53 AM,73.0,64.0,73,29.82,10.0,SSW,8.1,-,N/A,,Clear,200,2013-05-21 06:53:00
3:53 AM,73.0,64.0,73,29.79,10.0,South,8.1,-,N/A,,Scattered Clouds,190,2013-05-21 07:53:00
4:53 AM,73.0,64.0,73,29.80,10.0,South,9.2,-,N/A,,Clear,190,2013-05-21 08:53:00
5:53 AM,73.0,64.9,76,29.78,10.0,SSW,10.4,-,N/A,,Clear,200,2013-05-21 09:53:00
6:53 AM,71.1,64.0,78,29.78,10.0,SSW,6.9,-,N/A,,Clear,200,2013-05-21 10:53:00
7:53 AM,72.0,62.1,71,29.81,10.0,SW,10.4,-,N/A,,Clear,220,2013-05-21 11:53:00
8:53 AM,73.0,61.0,66,29.83,10.0,SW,12.7,21.9,N/A,,Clear,220,2013-05-21 12:53:00
9:53 AM,75.9,59.0,56,29.83,10.0,SSW,15.0,-,N/A,,Scattered Clouds,210,2013-05-21 13:53:00
10:53 AM,77.0,59.0,54,29.81,10.0,SW,10.4,23.0,N/A,,Clear,220,2013-05-21 14:53:00
11:53 AM,80.1,60.1,50,29.79,10.0,SSW,12.7,18.4,N/A,,Clear,210,2013-05-21 15:53:00
12:53 PM,82.0,57.9,44,29.80,9.0,WSW,11.5,24.2,N/A,,Mostly Cloudy,240,2013-05-21 16:53:00
1:53 PM,82.9,57.9,42,29.78,10.0,SSW,19.6,26.5,N/A,,Clear,210,2013-05-21 17:53:00
2:53 PM,86.0,57.9,38,29.76,10.0,WSW,9.2,25.3,N/A,,Clear,240,2013-05-21 18:53:00
3:53 PM,87.1,57.0,36,29.75,10.0,SW,19.6,25.3,N/A,,Partly Cloudy,220,2013-05-21 19:53:00
4:53 PM,88.0,57.9,36,29.74,10.0,WSW,9.2,20.7,N/A,,Scattered Clouds,240,2013-05-21 20:53:00
5:53 PM,87.1,57.9,37,29.73,10.0,SSW,13.8,19.6,N/A,,Scattered Clouds,210,2013-05-21 21:53:00
6:53 PM,84.9,57.0,38,29.72,10.0,SW,13.8,21.9,N/A,,Scattered Clouds,220,2013-05-21 22:53:00
7:53 PM,82.9,55.9,39,29.73,10.0,SW,6.9,-,N/A,,Clear,220,2013-05-21 23:53:00
8:53 PM,79.0,59.0,50,29.73,10.0,SSW,6.9,-,N/A,,Clear,200,2013-05-22 00:53:00
9:53 PM,75.9,59.0,56,29.74,10.0,SSW,5.8,-,N/A,,Clear,210,2013-05-22 01:53:00
10:53 PM,75.9,57.9,54,29.77,10.0,SSW,6.9,-,N/A,,Clear,210,2013-05-22 02:53:00
11:53 PM,73.9,59.0,59,29.77,10.0,SSW,5.8,-,N/A,,Clear,210,2013-05-22 03:53:00